Regional Weather Roundup
Issued by NWS

Home | Current Version | Previous Version | Text Only | Print | Product List | Glossary On
Versions: 1 2 3 4 5 6 7 8 9 10 11 12 13 14 15 16 17 18 19 20 21 22 23 24 25 26 27 28 29 30 31 32 33 34 35 36 37 38 39 40 41 42 43 44 45 46 47 48 49 50
000
ASUS46 KLOX 230212
RWRCA

SOUTHERN CALIFORNIA WEATHER ROUNDUP
NATIONAL WEATHER SERVICE OXNARD CALIFORNIA
700 PM PDT WED OCT 22 2014

NOTE: "FAIR" INDICATES FEW OR NO CLOUDS BELOW 12,000 FEET WITH NO
SIGNIFICANT WEATHER AND/OR OBSTRUCTIONS TO VISIBILITY.

  -  STATIONS PRECEEDED BY AN ASTERISK (*) ARE NOT NWS OR FAA
     STATIONS AND ARE NOT SUBJECT TO NWS AND FAA QUALITY CONTROL.

CAZ041-042-087-230300-
LA AND ORANGE COUNTY COASTAL AREAS


CITY           SKY/WX    TMP DP  RH WIND       PRES   REMARKS
L.A. DOWNTOWN  CLEAR     71  60  68 W3        29.91R
L.A. AIRPORT   PTCLDY    69  65  86 W8        29.92R
LONG BEACH     CLEAR     72  62  71 NW8       29.91R

CITY           SKY/WX    TMP DP  RH WIND       PRES   REMARKS
AVALON           N/A     66 N/A N/A MISG        N/A
FULLERTON      CLEAR     76  58  53 W3        29.90R
*GETTY CENTER    N/A     66  59  77 N3          N/A
HAWTHORNE      CLEAR     71  63  75 W6        29.92R
*LEO CARRILLO    N/A     68  57  68 W7G20       N/A
*LOS ALAMITOS  PTCLDY    71  60  68 NW7       29.91R
*REDONDO BEACH   N/A     69  64  83 SW1       29.91R
SANTA ANA      PTCLDY    74  63  68 SW5       29.91R
STA MONICA APT CLEAR     70  63  78 W5        29.91R
*STA MON PIER    N/A     69  65  86 S2        29.91R
TORRANCE       PTCLDY    72  66  83 W6        29.92R
*UCLA            N/A     68  61  77 W2        29.90R

$$

CAZ547-548-048-230300-
LA COUNTY VALLEYS AND INLAND EMPIRE


CITY           SKY/WX    TMP DP  RH WIND       PRES   REMARKS
BURBANK        CLEAR     75  52  44 SE5       29.92R
VAN NUYS       CLEAR     78  44  29 CALM      29.92R

CITY           SKY/WX    TMP DP  RH WIND       PRES   REMARKS
CORONA AIRPORT PTCLDY    75  52  44 W8        29.91R
*CHATSWORTH      N/A     75  55  50 CALM      29.89R
CHINO          CLEAR     72  54  53 W6        29.92R
*CLAREMONT       N/A     71  50  47 CALM        N/A
MARCH AFB      PTCLDY    73  51  46 W3        29.95R
*NORTHRIDGE      N/A     75  48  38 W1          N/A
ONTARIO        MOCLDY    77  58  51 SW7       29.92R
*PASADENA        N/A     73  57  56 CALM        N/A
POMONA         CLEAR     73  55  53 W8        29.96R
RIVERSIDE      PTCLDY    78  49  35 W3        29.92R
SAN BERNARDINO MOCLDY    77  48  36 SW6       29.93R
*SAN RAFAEL HI   N/A     72  50  46 E5          N/A
*SAUGUS          N/A     73  46  37 SW6         N/A
*WHITEMAN AP   CLEAR     77  45  31 CALM      29.96R
*WHITTIER HILL   N/A     71  59  65 W5          N/A
*WOODLAND HILL   N/A     75  48  38 SW2         N/A

$$

CAZ054-055-230300-
LA AND SAN BERNARDINO COUNTY MOUNTAINS


CITY           SKY/WX    TMP DP  RH WIND       PRES   REMARKS
*ACTON           N/A     77  30  18 N5          N/A
*BIG BEAR AIRP PTCLDY    52  23  32 CALM      30.25R
*BIG PINES       N/A     56  27  33 CALM        N/A
MT WILSON NWS    N/A     64  27  24 MISG        N/A
SANDBERG       CLEAR     69  25  19 E8        30.12R

$$

CAZ028-029-059-060-099-230300-
ANTELOPE VALLEY AND SURROUNDING AREAS


CITY           SKY/WX    TMP DP  RH WIND       PRES   REMARKS
LANCASTER      PTCLDY    72  30  21 CALM      30.01R
PALMDALE       PTCLDY    71  30  21 W3        30.02R
*POPPY PARK      N/A     65  28  25 W3          N/A

CITY           SKY/WX    TMP DP  RH WIND       PRES   REMARKS
29 PALMS       PTCLDY    74  35  24 SW5       30.05R
BARSTOW/DAGGET CLEAR     75  27  17 CALM      29.98R
BISHOP         CLEAR     69  23  17 SE10      30.04R
CHINA LAKE     MOCLDY    74  25  16 CALM      29.99R
EDWARDS AFB    MOCLDY    73  28  19 W2        29.99R
MOJAVE         FAIR      68  32  26 NW6       30.04R
NEEDLES        CLEAR     83  42  23 W3        29.92R
VICTORVILLE    PTCLDY    72  23  16 N3        30.04R

$$

CAZ039-040-230300-
VENTURA AND SANTA BARBARA COUNTY COAST


CITY           SKY/WX    TMP DP  RH WIND       PRES   REMARKS
CAMARILLO      CLEAR     70  56  61 CALM      29.91R
NWS OXNARD       N/A     68  54  60 CALM      29.92R
OXNARD AIRPORT CLEAR     71  57  61 CALM      29.91R
*POINT MUGU    PTCLDY    68  58  70 CALM      29.92R
SBA APT/GOLETA PTCLDY    68  61  78 SE5       29.90R
*SANTA BARBARA   N/A     75  45  34 CALM      29.98R
*VENTURA         N/A     69  54  57 CALM      29.96R

$$

CAZ044-045-230300-
VENTURA COUNTY VALLEYS


CITY           SKY/WX    TMP DP  RH WIND       PRES   REMARKS
*SIMI VALLEY     N/A     70  54  56 CALM      29.91R
*OJAI            N/A     68  53  60 CALM      29.88R
*FILLMORE        N/A     70  56  62 CALM      29.84R

$$

CAZ053-230300-
VENTURA COUNTY MOUNTAINS


CITY           SKY/WX    TMP DP  RH WIND       PRES   REMARKS
*LOCKWOOD VLY    N/A     55  32  41 MISG        N/A
*ROSE VALLEY     N/A     64  41  42 MISG        N/A

$$

CAZ034-035-036-230300-
CENTRAL COAST AND SANTA YNEZ VALLEY


CITY           SKY/WX    TMP DP  RH WIND       PRES   REMARKS
SAN LUIS OBISP PTCLDY    67  46  47 NW17      29.93R
SANTA MARIA    PTCLDY    68  49  50 W10       29.95R

CITY           SKY/WX    TMP DP  RH WIND       PRES   REMARKS
*CAL POLY SLO    N/A     77  39  25 N10G16      N/A
*LOMPOC        CLEAR     64  52  63 W7        29.96S
*PISMO BEACH     N/A     74  41  30 NE2       29.93R
*SANTA YNEZ    FAIR      64  50  59 W6        29.96R

$$

CAZ037-038-051-230300-
SAN LUIS OBISPO COUNTY INTERIOR AND CUYAMA VALLEY


CITY           SKY/WX    TMP DP  RH WIND       PRES   REMARKS
*CUYAMA          N/A     62  44  52 SE5       30.02R
PASO ROBLES    PTCLDY    71  33  24 E8        29.99R

$$

CAZ032-033-061-230300-
SOUTHERN DESERTS


CITY           SKY/WX    TMP DP  RH WIND       PRES   REMARKS
BLYTHE         PTCLDY    85  46  25 E5        29.88R
IMPERIAL       PTCLDY    82  51  34 NW3       29.85R
PALM SPRINGS   PTCLDY    86  36  16 CALM      29.91R
THERMAL        CLEAR     74  47  38 CALM      29.85R

$$

ELSEWHERE ACROSS THE WESTERN UNITED STATES AND MEXICO


CITY           SKY/WX    TMP DP  RH WIND       PRES   REMARKS
DENVER, CO     MOCLDY    56  41  57 S6        30.14R
GRAND CANYON,  CLEAR     45  29  53 CALM      30.25R
HONOLULU, HI   PTSUNNY   79  75  89 N7        29.96S
KAHULUI, MAUI  RAIN      75  73  94 E6        29.97S FOG
LAKE TAHOE, CA CLEAR     54  29  38 SW6       30.16S
LAS VEGAS, NV  PTCLDY    79  27  14 SW3       29.97R
MAMMOTH LAKES, FAIR      54  19  26 CALM      30.22R
MEXICO CITY, M PTCLDY    63  50  63 N13       30.28R
PHOENIX, AZ    PTCLDY    84  51  31 SW3       29.90R
PORTLAND, OR   LGT RAIN  58  56  93 S14       29.70S
RENO, NV       MOCLDY    67  31  26 VRB5      30.05R
SALT LAKE CITY MOCLDY    52  35  52 CALM      30.17R
SAN DIEGO, CA  MOCLDY    71  63  75 NW3       29.92R
SAN FRANCISCO, MOCLDY    67  58  72 W16       30.03S
SAN JOSE, CA   PTCLDY    65  56  72 NW10      30.02R
SEATTLE, WA    LGT RAIN  56  52  86 SE15      29.57F
TIJUANA, MEX   PTCLDY    68  59  73 W7        29.94R

$$

STATION/POSITION TIME  TEMP    WIND        PRES    VSBY  WAVE
                       AIR SEA DIR/SP/G                  HT/PER
                 (UTC) (F)     (DEG/KT/KT) (MB)    (MI)  (FT/S)
POINT ARGUELLO B NOT AVBL
WEST SANTA BARBA 0200   65 65  330/ 21/ 25 1012.1R         8/13
POINT CONCEPTION NOT AVBL
EAST SANTA BARBA 0100   67 69  240/  6/  8 1012.4F
SANTA MONICA BAY 0200   69 71  270/  8/ 10 1012.6R         5/ 9



USA.gov is the U.S. government's official web portal to all federal, state and local government web resources and services.